Flag for Canada Weather past 2 weeks in Kamloops, British Columbia, Canada

Now
43 °F

Partly sunny.


Feels Like: 37 °F
Forecast: 44 / 63 °F
Wind: 10 mph from East

Location: Kamloops


UV Index: 3 (Moderate)

Visibility: 40 mi


Pressure: 30.10 "Hg

Humidity: 66%

Dew point: 32 °F

Location of KamloopsLocation

Historic Weather in Kamloops

°F

Kamloops temperature yesterday

Maximum temperature yesterday: 61 °F (at 2:00 PM)
Minimum temperature yesterday: 39 °F (at 6:00 AM)
Average temperature yesterday: 52 °F

Past Weeks' High & Low Weather Summary

 TemperatureHumidityPressure
High70 °F (Apr 8, 2:00 PM)87% (Apr 11, 5:00 AM)30.46 "Hg (Apr 11, 5:00 AM)
Low32 °F (Apr 13, 6:00 AM)11% (Apr 14, 5:00 PM)29.59 "Hg (Apr 17, 11:00 PM)
Average50 °F50%30.01 "Hg
* Reported Apr 6 7:00 AM — Apr 21 7:00 AM, Kamloops, Weather by CustomWeather, © 2014

Note: Actual official high and low records may vary slightly from our data, if they occured in-between our weather recording intervals... More about our weather records

Advertising

Historic Weather Conditions — Data for Previous 24 hours

 ConditionsComfort  
Time TempWeatherWind HumidityBarometerVisibility
7:00 AM
Apr 21
41 °FPartly sunny.10 mph70%30.11 "Hg40 mi
6:00 AM41 °FPassing clouds.8 mph66%30.11 "Hg40 mi
5:00 AM43 °FOvercast.10 mph66%30.11 "Hg40 mi
4:00 AM43 °FPassing clouds.10 mph61%30.12 "Hg40 mi
3:00 AM45 °FPartly cloudy.7 mph61%30.13 "Hg40 mi
2:00 AM46 °FOvercast.No wind57%30.13 "Hg40 mi
1:00 AM48 °FOvercast.2 mph54%30.13 "Hg40 mi
12:00 AM48 °FOvercast.5 mph54%30.14 "Hg40 mi
11:00 PM
Apr 20
50 °FOvercast.5 mph50%30.14 "Hg40 mi
10:00 PM52 °FMostly cloudy.7 mph44%30.16 "Hg40 mi
9:00 PM54 °FMostly cloudy.8 mph41%30.16 "Hg40 mi
8:00 PM54 °FMostly cloudy.5 mph38%30.15 "Hg40 mi
7:00 PM55 °FMostly cloudy.6 mph31%30.15 "Hg40 mi
6:00 PM57 °FMostly cloudy.12 mph25%30.15 "Hg40 mi
5:00 PM59 °FMostly cloudy.14 mph21%30.15 "Hg40 mi
4:00 PM61 °FMostly cloudy.3 mph23%30.13 "Hg40 mi
3:00 PM61 °FMostly cloudy.3 mph20%30.14 "Hg40 mi
2:00 PM61 °FMostly cloudy.5 mph23%30.15 "Hg40 mi
1:00 PM59 °FPartly sunny.5 mph27%30.15 "Hg40 mi
12:00 PM57 °FPartly sunny.7 mph33%30.15 "Hg40 mi
11:00 AM57 °FPassing clouds.6 mph31%30.16 "Hg40 mi
10:00 AM55 °FPassing clouds.7 mph36%30.17 "Hg40 mi
9:00 AM52 °FPassing clouds.2 mph44%30.16 "Hg40 mi
8:00 AM48 °FPassing clouds.2 mph50%30.16 "Hg40 mi
Weather by CustomWeather, © 2014

See weather overview